[[{"header":{"parameterUnit":"m.s-1","parameterCategory":1,"la1":30.2991,"la2":30.254,"lo1":-89.0895,"lo2":-89.0444,"dy":0.0017,"dx":0.0017,"nx":28,"ny":28,"refTime":"2024-08-18T21:00:00:Z","depth":0,"parameterNumber":2,"parameterNumberName":"U-component_of_WINDS"},"data":[0,0,0,0,0,0,0,0,0,0,0,0,0,0,0,0,0,0,0,0,0,0,0,0,0,0,0,0,0,0,0,0,0,0,0,0,0,0,0,0,0,0,0,0,0,0,0,0,0,0,0,0,0,0,0,0,0,0,-0.7033,-0.7034,0,-0.7152,-0.7154,-0.7155,-0.7134,-0.7132,-0.713,-0.7128,-0.7254,-0.7259,-0.7264,0,0,0,0,0,0,0,0,0,0,0,0,0,-0.6791,-0.6796,-0.7033,-0.7035,-0.7036,-0.7152,-0.7154,-0.7155,-0.7135,-0.7132,-0.713,-0.7127,-0.7252,-0.7258,-0.7265,0,0,0,0,0,0,0,0,0,0,0,0,0,-0.6902,-0.6797,-0.7033,-0.704,-0.7041,-0.7152,-0.7154,-0.7156,-0.7135,-0.7132,-0.7129,-0.7126,-0.725,-0.7258,-0.7266,-0.7378,0,0,-0.729,-0.7293,0,0,0,0,0,0,0,0,-0.6896,-0.6911,-0.7037,-0.7039,-0.7042,-0.7125,-0.7114,-0.723,-0.7136,-0.71,-0.7128,-0.7125,-0.7214,-0.7225,-0.7254,-0.7384,-0.7389,-0.7291,-0.7296,-0.7299,-0.7301,0,0,0,0,0,0,0,-0.6888,-0.6906,-0.708,-0.7039,-0.7042,-0.7038,-0.705,-0.7136,-0.7173,-0.7103,-0.7102,-0.7116,-0.7215,-0.7246,-0.7257,-0.7391,-0.729,-0.7298,-0.7302,-0.7306,-0.762,-0.7623,0,0,0,0,0,0,-0.6878,-0.6899,-0.7077,-0.7084,-0.6959,-0.7045,-0.7059,-0.7102,-0.7172,-0.718,-0.7118,-0.7114,-0.7234,-0.7248,-0.7261,-0.7399,-0.7299,-0.7306,-0.7311,-0.7616,-0.7621,-0.7625,0,0,0,0,0,0,-0.6873,-0.6894,-0.7072,-0.6991,-0.7014,-0.7052,-0.7101,-0.7106,-0.7137,-0.7184,-0.7191,-0.7144,-0.7232,-0.725,-0.7349,-0.7403,-0.731,-0.7317,-0.7612,-0.7618,-0.7623,-0.7674,0,0,0,0,0,0,-0.6866,-0.6892,-0.6934,-0.6992,-0.7018,-0.7157,-0.7104,-0.711,-0.7151,-0.7147,-0.721,-0.7217,-0.7231,-0.7337,-0.7357,-0.7412,-0.7323,-0.7608,-0.7615,-0.7621,-0.7668,-0.768,-0.7691,0,0,0,0,0,-0.6857,-0.6944,-0.6937,-0.6958,-0.7072,-0.716,-0.7175,-0.7188,-0.7155,-0.7199,-0.7229,-0.7215,-0.7393,-0.7348,-0.737,-0.7428,-0.7604,-0.7613,-0.762,-0.7662,-0.7678,-0.7691,0,0,0,0,0,0,-0.6893,-0.6952,-0.6944,-0.7053,-0.7101,-0.7156,-0.7212,-0.7204,-0.7264,-0.7258,-0.7273,-0.7287,-0.7388,-0.7417,-0.7366,-0.7541,-0.7494,-0.7507,-0.7518,-0.7534,-0.7545,-0.7537,-0.733,0,0,0,0,0,-0.6913,-0.6979,-0.7027,-0.7118,-0.7143,-0.7173,-0.7212,-0.7218,-0.727,-0.7291,-0.7328,-0.7379,-0.7447,-0.7491,-0.7556,-0.767,-0.7685,-0.7721,-0.7733,-0.7742,-0.7755,-0.7819,-0.7837,-0.7651,-0.7651,-0.7651,0,0,-0.6957,-0.6997,-0.7038,-0.7127,-0.7165,-0.7235,-0.7191,-0.7266,-0.7318,-0.7302,-0.7399,-0.7427,-0.7486,-0.7594,-0.7643,-0.7621,-0.7808,-0.7753,-0.776,-0.7767,-0.7829,-0.7847,-0.7862,-0.7657,-0.7656,-0.7655,0,0,-0.7071,-0.7107,-0.7188,-0.7227,-0.7285,-0.7304,-0.7324,-0.738,-0.7398,-0.7494,-0.7485,-0.7547,-0.7663,-0.7705,-0.7742,-0.7872,-0.7863,-0.7892,-0.7955,-0.8018,-0.8033,-0.8046,-0.8095,-0.8112,-0.7903,-0.7903,-0.7904,0,-0.7118,-0.7221,-0.7231,-0.7307,-0.7347,-0.7334,-0.7417,-0.7455,-0.7532,-0.7561,-0.7534,-0.7679,-0.7718,-0.7836,-0.7868,-0.7897,-0.7921,-0.7887,-0.8029,-0.8043,-0.8055,-0.8102,-0.812,-0.7907,-0.7907,-0.7906,-0.7906,0,-0.7277,-0.7348,-0.7407,-0.748,-0.7527,-0.7606,-0.7629,-0.7674,-0.7676,-0.7698,-0.7797,-0.7842,-0.7916,-0.7944,-0.7947,-0.8064,-0.8048,-0.8025,-0.798,-0.8076,-0.812,-0.8138,-0.7912,-0.7911,-0.791,-0.7909,0,0,-0.742,-0.7497,-0.7519,-0.7553,-0.7615,-0.7672,-0.775,-0.7821,-0.7862,-0.7914,-0.7982,-0.808,-0.8059,-0.8101,-0.8108,-0.8162,-0.8265,-0.8133,-0.8135,-0.8159,-0.8399,-0.8418,-0.8439,-0.8258,-0.8261,-0.8264,-0.8395,0,-0.7543,-0.7681,-0.7692,-0.7817,-0.7884,-0.7873,-0.7941,-0.7988,-0.8011,-0.8072,-0.8097,-0.8167,-0.8133,-0.8158,-0.8211,-0.8241,-0.8314,-0.8232,-0.8324,-0.8327,-0.8313,-0.8462,-0.8482,-0.8604,-0.8412,-0.8415,-0.8417,0,-0.7705,-0.7762,-0.7894,-0.7948,-0.7977,-0.8038,-0.8105,-0.8163,-0.8216,-0.8228,-0.8274,-0.8274,-0.8356,-0.8304,-0.8419,-0.8363,-0.8401,-0.8421,-0.8426,-0.8438,-0.838,-0.848,-0.8643,-0.8662,-0.8444,-0.8442,-0.844,0,-0.78,-0.7909,-0.8003,-0.8032,-0.8096,-0.814,-0.8169,-0.8219,-0.8261,-0.8319,-0.8348,-0.8415,-0.8452,-0.8505,-0.8523,-0.8483,-0.8638,-0.8587,-0.8653,-0.8653,-0.8689,-0.8687,-0.8863,-0.8708,-0.8707,-0.8707,-0.8707,0,-0.7938,-0.802,-0.8046,-0.8104,-0.8196,-0.8207,-0.8298,-0.8324,-0.8369,-0.8432,-0.8425,-0.8486,-0.8504,-0.8568,-0.8582,-0.8676,-0.8693,-0.8707,-0.871,-0.8709,-0.8708,-0.8737,-0.873,-0.8712,-0.8711,-0.871,-0.8709,0,-0.8061,-0.8081,-0.8183,-0.8235,-0.825,-0.8316,-0.8361,-0.8417,-0.8438,-0.8519,-0.8538,-0.8571,-0.8646,-0.8668,-0.8758,-0.8768,-0.8879,-0.8873,-0.8861,-0.8863,-0.8928,-0.8923,-0.9131,-0.916,-0.8983,-0.8985,-0.8986,0,-0.8149,-0.8211,-0.827,-0.8312,-0.8342,-0.841,-0.8453,-0.8466,-0.8511,-0.8576,-0.8625,-0.8698,-0.8758,-0.8878,-0.8911,-0.898,-0.8978,-0.9046,-0.8989,-0.8986,-0.8983,-0.898,-0.8987,-0.9058,-0.906,-0.9062,-0.9063,0,-0.8304,-0.8311,-0.8373,-0.8439,-0.849,-0.8542,-0.8593,-0.8627,-0.8648,-0.8699,-0.8775,-0.8821,-0.8913,-0.8987,-0.9057,-0.9088,-0.908,-0.908,-0.9099,-0.9101,-0.9093,-0.9101,-0.8894,-0.9076,-0.9075,-0.9074,-0.9073,-0.9073,-0.8415,-0.847,-0.852,-0.8589,-0.8628,-0.8676,-0.8731,-0.8758,-0.8821,-0.8897,-0.89,-0.8983,-0.9035,-0.9128,-0.9162,-0.9228,-0.9208,-0.9236,-0.9243,-0.9251,-0.9257,-0.9079,-0.924,-0.924,-0.924,-0.9239,-0.9239,0,-0.8572,-0.8603,-0.8666,-0.8737,-0.8792,-0.8776,-0.8832,-0.8879,-0.8952,-0.9,-0.9058,-0.9146,-0.9218,-0.9255,-0.9327,-0.9372,-0.9371,-0.9391,-0.939,-0.9397,-0.927,-0.9247,-0.9391,-0.9391,-0.9391,-0.9391,-0.9391,-0.9391,-0.8661,-0.8755,-0.8767,-0.8881,-0.8912,-0.8992,-0.9025,-0.9069,-0.9108,-0.9206,-0.9265,-0.9288,-0.9333,-0.9407,-0.9472,-0.9482,-0.951,-0.9533,-0.9541,-0.9421,-0.9406,-0.9391,-0.937,-0.9538,-0.9538,-0.9663,-0.9664,-0.9665]},{"header":{"parameterUnit":"m.s-1","parameterCategory":1,"la1":30.2991,"la2":30.254,"lo1":-89.0895,"lo2":-89.0444,"dy":0.0017,"dx":0.0017,"nx":28,"ny":28,"refTime":"2024-08-18T21:00:00:Z","depth":0,"parameterNumber":3,"parameterNumberName":"V-component_of_WINDS"},"data":[0,0,0,0,0,0,0,0,0,0,0,0,0,0,0,0,0,0,0,0,0,0,0,0,0,0,0,0,0,0,0,0,0,0,0,0,0,0,0,0,0,0,0,0,0,0,0,0,0,0,0,0,0,0,0,0,0,0,-3.7074,-3.7075,0,-3.7158,-3.7159,-3.716,-3.71,-3.7097,-3.7095,-3.7092,-3.7175,-3.718,-3.7184,0,0,0,0,0,0,0,0,0,0,0,0,0,-3.6858,-3.6862,-3.7074,-3.7075,-3.7076,-3.7158,-3.7159,-3.716,-3.71,-3.7097,-3.7094,-3.7091,-3.7174,-3.7179,-3.7185,0,0,0,0,0,0,0,0,0,0,0,0,0,-3.6948,-3.6863,-3.7074,-3.7056,-3.7055,-3.7158,-3.7159,-3.7161,-3.7101,-3.7097,-3.7093,-3.7089,-3.7172,-3.7179,-3.7186,-3.7309,0,0,-3.7207,-3.721,0,0,0,0,0,0,0,0,-3.6943,-3.6956,-3.7058,-3.7058,-3.7057,-3.7115,-3.7113,-3.721,-3.7102,-3.7084,-3.7092,-3.7087,-3.7158,-3.7166,-3.719,-3.7313,-3.7317,-3.7208,-3.7212,-3.7215,-3.7217,0,0,0,0,0,0,0,-3.6936,-3.6952,-3.7107,-3.7059,-3.7059,-3.7043,-3.7051,-3.7131,-3.7142,-3.7085,-3.7081,-3.7092,-3.7157,-3.7184,-3.7192,-3.7318,-3.7207,-3.7214,-3.7218,-3.7221,-3.7544,-3.7549,0,0,0,0,0,0,-3.6932,-3.6947,-3.7105,-3.711,-3.6989,-3.705,-3.7059,-3.71,-3.7141,-3.7144,-3.7095,-3.7089,-3.7174,-3.7184,-3.7195,-3.7341,-3.7215,-3.7222,-3.7226,-3.754,-3.7545,-3.755,0,0,0,0,0,0,-3.6928,-3.6947,-3.7101,-3.7027,-3.7046,-3.7058,-3.7104,-3.7104,-3.7131,-3.7149,-3.715,-3.7121,-3.7171,-3.7185,-3.7281,-3.7343,-3.7225,-3.7231,-3.7535,-3.7542,-3.7548,-3.7637,0,0,0,0,0,0,-3.6922,-3.6946,-3.6994,-3.7029,-3.705,-3.7188,-3.7108,-3.7108,-3.7143,-3.7136,-3.7173,-3.7176,-3.7169,-3.7271,-3.7288,-3.7351,-3.7237,-3.7529,-3.7538,-3.7546,-3.7628,-3.7645,-3.766,0,0,0,0,0,-3.6914,-3.7015,-3.6997,-3.7016,-3.7111,-3.7192,-3.7203,-3.7195,-3.7149,-3.7196,-3.7208,-3.7174,-3.7334,-3.7281,-3.73,-3.7366,-3.7525,-3.7536,-3.7545,-3.7621,-3.7642,-3.766,0,0,0,0,0,0,-3.6986,-3.7019,-3.6999,-3.7115,-3.7151,-3.7181,-3.7241,-3.7217,-3.7267,-3.7257,-3.7243,-3.7252,-3.7353,-3.7369,-3.731,-3.7487,-3.7422,-3.7436,-3.7473,-3.7494,-3.7509,-3.7503,-3.7242,0,0,0,0,0,-3.7016,-3.708,-3.7105,-3.7204,-3.7223,-3.723,-3.7264,-3.7254,-3.7291,-3.7306,-3.7324,-3.736,-3.7418,-3.7456,-3.7511,-3.763,-3.7637,-3.7684,-3.77,-3.7713,-3.7726,-3.7789,-3.781,-3.7582,-3.7582,-3.7582,0,0,-3.7077,-3.7103,-3.7144,-3.7219,-3.7246,-3.7312,-3.7243,-3.7315,-3.7363,-3.7316,-3.7409,-3.7423,-3.7462,-3.757,-3.7619,-3.7587,-3.779,-3.7726,-3.7736,-3.7742,-3.7801,-3.7823,-3.7842,-3.7589,-3.7588,-3.7587,0,0,-3.7222,-3.7249,-3.7334,-3.7362,-3.7404,-3.7407,-3.7428,-3.7462,-3.747,-3.7563,-3.7529,-3.7585,-3.7685,-3.7714,-3.7742,-3.7897,-3.7868,-3.7915,-3.7999,-3.806,-3.8078,-3.8094,-3.8149,-3.8169,-3.7927,-3.7927,-3.7927,0,-3.7293,-3.7391,-3.738,-3.7456,-3.7489,-3.745,-3.7536,-3.7563,-3.762,-3.7644,-3.7607,-3.7732,-3.7755,-3.7869,-3.7907,-3.7931,-3.7953,-3.7911,-3.8077,-3.8093,-3.8107,-3.8159,-3.818,-3.7933,-3.7932,-3.7932,-3.7931,0,-3.7476,-3.7545,-3.7608,-3.7666,-3.7706,-3.7786,-3.7786,-3.7828,-3.7814,-3.782,-3.7914,-3.7941,-3.8,-3.8026,-3.8013,-3.8138,-3.8117,-3.8079,-3.8013,-3.8135,-3.8183,-3.8203,-3.7941,-3.7939,-3.7937,-3.7936,0,0,-3.767,-3.7719,-3.7743,-3.7768,-3.7811,-3.7863,-3.794,-3.7999,-3.8035,-3.8075,-3.8139,-3.8224,-3.8189,-3.8221,-3.821,-3.8265,-3.8385,-3.822,-3.8221,-3.825,-3.8524,-3.8552,-3.8576,-3.8366,-3.8369,-3.8372,-3.852,0,-3.7817,-3.7954,-3.7945,-3.8073,-3.8136,-3.8099,-3.8166,-3.8199,-3.8207,-3.826,-3.8268,-3.8329,-3.8278,-3.8297,-3.8349,-3.836,-3.844,-3.8349,-3.8424,-3.8427,-3.8416,-3.8601,-3.8632,-3.877,-3.8539,-3.8543,-3.8545,0,-3.8007,-3.8055,-3.819,-3.8222,-3.8248,-3.8309,-3.8361,-3.8413,-3.8449,-3.8451,-3.8486,-3.8466,-3.8542,-3.8475,-3.858,-3.8518,-3.8548,-3.8557,-3.8562,-3.8569,-3.8494,-3.8613,-3.8814,-3.8835,-3.8575,-3.8573,-3.857,0,-3.8135,-3.8233,-3.8326,-3.8348,-3.8389,-3.8432,-3.8451,-3.8483,-3.8518,-3.8563,-3.8585,-3.8639,-3.8668,-3.8709,-3.8703,-3.8654,-3.881,-3.8741,-3.8812,-3.8813,-3.8847,-3.8845,-3.9056,-3.8866,-3.8866,-3.8866,-3.8865,0,-3.8301,-3.8384,-3.8384,-3.8441,-3.8533,-3.8522,-3.8612,-3.8626,-3.8654,-3.8712,-3.8683,-3.8738,-3.8727,-3.8781,-3.8777,-3.8864,-3.8877,-3.888,-3.8878,-3.8883,-3.8883,-3.8903,-3.8893,-3.8871,-3.887,-3.8869,-3.8868,0,-3.846,-3.8462,-3.8561,-3.8591,-3.8601,-3.8667,-3.8692,-3.8745,-3.875,-3.8824,-3.8841,-3.8848,-3.8911,-3.8909,-3.898,-3.8977,-3.9084,-3.907,-3.9072,-3.9069,-3.9141,-3.9134,-3.9372,-3.9403,-3.9193,-3.9195,-3.9197,0,-3.8565,-3.8629,-3.8666,-3.8703,-3.8725,-3.8785,-3.8821,-3.8812,-3.885,-3.8895,-3.8943,-3.9002,-3.905,-3.9151,-3.9162,-3.9215,-3.9203,-3.9283,-3.9211,-3.9214,-3.9204,-3.92,-3.9206,-3.9297,-3.9299,-3.9301,-3.9303,0,-3.8753,-3.8751,-3.8804,-3.8859,-3.8903,-3.8944,-3.8983,-3.9015,-3.9009,-3.9054,-3.9118,-3.9154,-3.9226,-3.9286,-3.9337,-3.9354,-3.9328,-3.9325,-3.9344,-3.935,-3.9349,-3.9351,-3.9111,-3.932,-3.9318,-3.9317,-3.9316,-3.9315,-3.8888,-3.8943,-3.8977,-3.9037,-3.9065,-3.9102,-3.9153,-3.9165,-3.9218,-3.9277,-3.9268,-3.9339,-3.9371,-3.9438,-3.946,-3.9514,-3.9486,-3.9514,-3.9521,-3.9528,-3.9536,-3.934,-3.9523,-3.9523,-3.9522,-3.9522,-3.9521,0,-3.9074,-3.9094,-3.915,-3.9205,-3.9252,-3.9223,-3.9264,-3.9305,-3.9369,-3.9402,-3.9449,-3.9522,-3.9579,-3.9594,-3.9649,-3.9689,-3.9678,-3.9704,-3.9701,-3.9705,-3.9558,-3.9536,-3.9712,-3.9712,-3.9712,-3.9712,-3.9712,-3.9711,-3.9176,-3.9267,-3.9269,-3.9372,-3.9391,-3.9462,-3.9487,-3.952,-3.9547,-3.963,-3.9677,-3.9687,-3.9713,-3.9769,-3.9819,-3.9822,-3.9843,-3.9874,-3.9872,-3.9735,-3.9716,-3.9697,-3.9677,-3.9879,-3.9879,-4.0014,-4.0015,-4.0016]}]]